Regional Weather Roundup
Issued by NWS

Home | Current Version | Previous Version | Text Only | Print | Product List | Glossary Off
Versions: 1 2 3 4 5 6 7 8 9 10 11 12 13 14 15 16 17 18 19 20 21 22 23 24 25 26 27 28 29 30 31 32 33 34 35 36 37 38 39 40 41 42 43 44 45 46 47 48 49 50

150
ASUS45 KTFX 260810
RWRMT
MONTANA REGIONAL WEATHER ROUNDUP
NATIONAL WEATHER SERVICE GREAT FALLS MT
200 AM MDT SUN MAR 26 2017

NOTE: "FAIR" INDICATES FEW OR NO CLOUDS BELOW 12000 FEET WITH NO
SIGNIFICANT WEATHER AND/OR OBSTRUCTIONS TO VISIBILITY.

MTZ001>007-043-260900-
WEST OF THE DIVIDE

CITY           SKY/WX    TMP DP  RH WIND       PRES   REMARKS
KALISPELL      PTCLDY    34  30  85 SE6       29.98S WCI  29
MISSOULA       MOCLDY    34  30  85 CALM      30.03S
BUTTE          MOCLDY    31  25  78 N5        29.99R
MULLAN PASS    CLOUDY    25  24  96 SW5       29.94S
ANACONDA         N/A     28  25  86 SW3       30.00R
DEER LODGE       N/A     36  28  75 CALM      30.01S
EUREKA           N/A     37  27  65 SE7       29.98S
HAMILTON         N/A     39  32  75 NE5       30.02S
RONAN            N/A     37  32  82 CALM      30.05S
$$

MTZ008-052>055-260900-
SOUTHWEST MONTANA

CITY           SKY/WX    TMP DP  RH WIND       PRES   REMARKS
BOZEMAN        MOCLDY    34  31  88 SE7       29.96R WCI  28
DILLON         CLOUDY    36  23  59 SW8       29.95S WCI  30
W YELLOWSTONE  MIX PCPN  30  28  93 SW3       29.98S
ENNIS          CLOUDY    34  30  86 S6        30.00R WCI  29
THREE FORKS      N/A     39 -19   8 CALM      29.96S
$$

MTZ009-010-012-014-046-048-049-054-260900-
EAST SLOPES AND CENTRAL MONTANA

CITY           SKY/WX    TMP DP  RH WIND       PRES   REMARKS
CUT BANK       CLEAR     35  17  47 W15       29.88F WCI  25
GREAT FALLS    PTCLDY    31  21  66 W10       29.93S WCI  22
MALMSTROM AFB  PTCLDY    31  24  75 SW6       29.95R WCI  26
HELENA         CLOUDY    41  28  60 SW7       29.97S
AUGUSTA          N/A     32  21  64 E8        29.91S WCI  25
BOWMANS CRNR     N/A     32  23  69 S6        29.91F WCI  27
CHOTEAU          N/A     34  21  60 VRB3      29.92S
CONRAD           N/A     33  30  89 SW5       29.94S
FAIRFIELD        N/A     36  21  54 SW14      29.91F WCI  27
POWER            N/A     28  21  73 SW6       29.92S WCI  22
RAYNESFORD     MOCLDY    30  22  72 CALM      29.95R
$$

MTZ011-013-016-021-045-047-050-051-260900-
NORTH CENTRAL MONTANA

CITY           SKY/WX    TMP DP  RH WIND       PRES   REMARKS
HAVRE          CLOUDY    41  28  60 SW9       29.92R
LEWISTOWN      CLEAR     31  20  63 S6        29.93S WCI  25
N BAR RANCH      N/A     34  18  51 W6        29.94S WCI  29
CHINOOK          N/A     37  25  60 W5        29.91R
DENTON           N/A     32  22  64 S7        29.90R WCI  26
FORT BENTON      N/A     30  21  69 MISG      29.95S
GEYSER           N/A     34  21  59 SW10      29.93R WCI  26
GRASS RANGE      N/A     37  23  56 SW14      29.89R WCI  28
STANFORD         N/A     32  22  65 CALM      29.92S
WINIFRED         N/A     34  22  61 SW6       29.92R WCI  29
$$

MTZ017>020-022>027-061-062-260900-
NORTHEAST MONTANA

CITY           SKY/WX    TMP DP  RH WIND       PRES   REMARKS
GLASGOW        CLOUDY    41  29  62 E7        29.87F
JORDAN           N/A     38  33  82 CALM      29.88F
SIDNEY         CLOUDY    40  31  70 CALM      29.90R
WOLF POINT     MOCLDY    38  32  79 E5        29.90R
MALTA          CLEAR     32  28  86 W7        29.89R WCI  26
PLENTYWOOD       N/A     41  34  75 SE3       29.89S
POPLAR           N/A     39  30  70 CALM      29.89F
$$

MTZ028>42-056>058-260900-
SOUTHCENTRAL AND SOUTHEAST MONTANA

CITY           SKY/WX    TMP DP  RH WIND       PRES   REMARKS
BAKER          LGT RAIN  42  39  89 S5        29.93S
BILLINGS       PTCLDY    42  33  70 W9        29.92R
LIVINGSTON     CLOUDY    31  27  85 NW9       29.94R WCI  23
MILES CITY     MOCLDY    46  36  68 S7        29.91S
BIG TIMBER     CLOUDY    36  30  80 SW5       29.96S
EKALAKA          N/A     40  36  86 N6        29.92R
FORSYTH          N/A     45  37  76 CALM      29.92R
HARLOWTON        N/A     35  25  68 W14       29.92R WCI  25
LAUREL           N/A     38  26  62 W3        29.91F
$$

REGIONAL REPORTS...DAKOTAS

CITY           SKY/WX    TMP DP  RH WIND       PRES   REMARKS
WILLISTON      PTCLDY    44  34  67 NE6       29.90S
MINOT          CLOUDY    41  35  79 SW3       29.90R
DICKINSON      CLOUDY    46  30  53 NE7       29.89R
BEACH            N/A    N/A N/A N/A MISG        N/A
TIOGA            N/A     36  36 100 E5        29.91S
WATFORD CITY   MOCLDY    43  32  65 SE6       29.89S
BISMARCK       CLOUDY    41  35  79 S7        29.93S
GRAND FORKS    CLOUDY    34  33  96 S10       29.98F WCI  26
FARGO          CLOUDY    35  33  92 SE3       30.00R
BUFFALO SD       N/A     46  34  62 N14       29.82S
RAPID CITY     CLOUDY    45  31  58 N8        29.84R
$$

REGIONAL REPORTS...WYOMING/IDAHO/WASHINGTON

CITY           SKY/WX    TMP DP  RH WIND       PRES   REMARKS
GILLETTE       CLOUDY    41  38  89 N16       29.90S
SHERIDAN       LGT RAIN  38  36  92 S5        29.94F
BUFFALO WY     LGT RAIN  36  33  89 NW8       29.93S WCI  30
CODY           CLEAR     35  31  85 SW7       29.95S WCI  29
YELLOWSTONE LA   N/A     24  22  91 CALM      29.99F
IDAHO FALLS    CLEAR     37  27  67 S12       29.98S WCI  29
SALMON         CLOUDY    37  21  52 S7        29.98S
BOISE          CLEAR     41  30  65 SE8       29.99S
SPOKANE        PTCLDY    36  32  85 S9        29.99R WCI  29
$$

REGIONAL REPORTS...ALBERTA

CITY           SKY/WX    TMP DP  RH WIND       PRES   REMARKS
EDMONTON       MOCLDY    36  30  80 W5        29.79S
CALGARY        CLEAR     37  12  35 W14G21    29.80R WCI  29
LETHBRIDGE     CLEAR     32  21  64 SW13      29.86S WCI  22
MEDICINE HAT   CLEAR     34  25  69 SW15      29.84S WCI  24
WATERTON GATE    N/A     36  18  48 SW16G23     N/A  WCI  26
CARDSTON         N/A     30  18  59 W2          N/A
MILK RIVER       N/A     28  25  86 W9          N/A  WCI  20
ONEFOUR          N/A     36  27  69 NW12        N/A  WCI  27
$$

REGIONAL REPORTS...SASKATCHEWAN

CITY           SKY/WX    TMP DP  RH WIND       PRES   REMARKS
SWIFT CURRENT  CLEAR     34  25  69 SW12      29.82S WCI  25
REGINA         CLOUDY    36  34  93 SE7       29.87R WCI  30
SASKATOON      PTCLDY    30  28  93 E6        29.87S WCI  24
CYPRESS HILLS    N/A     34  18  51 W10         N/A  WCI  26
VAL MARIE        N/A     28  25  86 SW1         N/A
ROCKGLEN         N/A     36  27  69 S8          N/A  WCI  29
ASSINIBOIA       N/A     28  28 100 NW5         N/A
$$




USA.gov is the U.S. government's official web portal to all federal, state and local government web resources and services.